Tracking 26308 objects as of 1-Dec-2022
HD Live streaming from Space Station
objects crossing your sky now

SCOUT X-4 R/B

Track SCOUT X-4 R/B now!
10-day predictions


NORAD ID: 1739
Int'l Code: 1965-093B
Perigee: 662.2 km
Apogee: 790.6 km
Inclination: 59.7 °
Period: 99.2 minutes
Semi major axis: 7097 km
RCS: 0.5409 m2 (medium)
Launch date: November 19, 1965
Source: United States (US)
Launch site: WALLOPS ISLAND (WLPIS)

Note: This is a ROCKET BODY
aabbcc
Your satellite tracking list
Your tracking list is empty




NASA's NSSDC Master Catalog

Two Line Element Set (TLE):
1 01739U 65093B   22334.57540357  .00000194  00000-0  83940-4 0  9995
2 01739  59.7057  23.9209 0090455 128.2513 232.6714 14.51948007982097
Source of the keplerian elements: AFSPC